Location: Cambroso
(45.2833°N, 12.0850°E)
Time: 10:13:54
(UTC+00:00)

Lacrosse 5 - Pass Details

Date: 21 January 2021
Orbit: 715 x 724 km, 57.0° (Epoch: 28 February)

Event Time Altitude Azimuth Distance (km) Brightness Sun altitude
Rises 16:41:46 0° 310° (NW) 3,123 5.6 -7.0°
Reaches altitude 10° 16:44:16 10° 318° (NW) 2,201 4.7 -7.4°
Maximum altitude 16:49:06 43° 30° (NNE) 1,005 2.3 -8.2°
Drops below altitude 10° 16:53:54 10° 101° (ESE) 2,195 3.9 -9.0°
Enters shadow 16:54:45 - 104° (ESE) 2,503 4.2 -9.1°
